Time,TemperatureF,DewpointF,PressureIn,WindDirection,WindDirectionDegrees,WindSpeedMPH,WindSpeedGustMPH,Humidity,HourlyPrecipIn,Conditions,Clouds,dailyrainin,SolarRadiationWatts/m^2,SoftwareType,DateUTC
2013-01-08 00:02:00,45.0,32.0,-100.00,SE,124,5.0,10.0,60,0.00,,,0.00,0.000000,,2013-01-08 06:02:00,
2013-01-08 00:33:00,45.0,32.0,-100.00,ESE,121,5.0,7.0,61,0.00,,,0.00,0.000000,,2013-01-08 06:33:00,
2013-01-08 00:43:00,45.0,32.0,-100.00,ESE,121,5.0,7.0,61,0.00,,,0.00,0.000000,,2013-01-08 06:43:00,
2013-01-08 00:53:00,45.0,32.0,-100.00,ESE,121,5.0,7.0,61,0.00,,,0.00,0.000000,,2013-01-08 06:53:00,
2013-01-08 01:02:00,45.0,32.0,-100.00,ESE,121,5.0,7.0,61,0.00,,,0.00,0.000000,,2013-01-08 07:02:00,
2013-01-08 01:32:00,45.0,33.0,-100.00,ESE,123,4.0,7.0,62,0.00,,,0.00,0.000000,,2013-01-08 07:32:00,
2013-01-08 01:42:00,45.0,33.0,-100.00,ESE,123,4.0,7.0,62,0.00,,,0.00,0.000000,,2013-01-08 07:42:00,
2013-01-08 01:52:00,45.0,33.0,-100.00,ESE,123,4.0,7.0,62,0.00,,,0.00,0.000000,,2013-01-08 07:52:00,
2013-01-08 02:02:00,45.0,33.0,-100.00,ESE,123,4.0,7.0,62,0.00,,,0.00,0.000000,,2013-01-08 08:02:00,
2013-01-08 02:32:00,43.0,33.0,-100.00,East,101,4.0,6.0,68,0.00,,,0.00,0.000000,,2013-01-08 08:32:00,
2013-01-08 02:42:00,43.0,33.0,-100.00,East,101,4.0,6.0,68,0.00,,,0.00,0.000000,,2013-01-08 08:42:00,
2013-01-08 02:53:00,43.0,33.0,-100.00,East,101,4.0,6.0,68,0.00,,,0.00,0.000000,,2013-01-08 08:53:00,
2013-01-08 03:02:00,43.0,33.0,-100.00,East,101,4.0,6.0,68,0.00,,,0.00,0.000000,,2013-01-08 09:02:00,
2013-01-08 03:33:00,45.0,34.0,-100.00,ESE,116,5.0,7.0,66,0.00,,,0.00,0.000000,,2013-01-08 09:33:00,
2013-01-08 03:42:00,45.0,34.0,-100.00,ESE,116,5.0,7.0,66,0.00,,,0.00,0.000000,,2013-01-08 09:42:00,
2013-01-08 03:52:00,45.0,34.0,-100.00,ESE,116,5.0,7.0,66,0.00,,,0.00,0.000000,,2013-01-08 09:52:00,
2013-01-08 04:02:00,45.0,34.0,-100.00,ESE,116,5.0,7.0,66,0.00,,,0.00,0.000000,,2013-01-08 10:02:00,
2013-01-08 04:33:00,46.0,33.0,-100.00,SSE,150,6.0,8.0,61,0.00,,,0.00,0.000000,,2013-01-08 10:33:00,
2013-01-08 04:42:00,46.0,33.0,-100.00,SSE,150,6.0,8.0,61,0.00,,,0.00,0.000000,,2013-01-08 10:42:00,
2013-01-08 04:52:00,46.0,33.0,-100.00,SSE,150,6.0,8.0,61,0.00,,,0.00,0.000000,,2013-01-08 10:52:00,
2013-01-08 05:02:00,46.0,33.0,-100.00,SSE,150,6.0,8.0,61,0.00,,,0.00,0.000000,,2013-01-08 11:02:00,
2013-01-08 05:33:00,46.0,34.0,-100.00,SE,132,5.0,7.0,62,0.00,,,0.00,0.000000,,2013-01-08 11:33:00,
2013-01-08 05:42:00,46.0,34.0,-100.00,SE,132,5.0,7.0,62,0.00,,,0.00,0.000000,,2013-01-08 11:42:00,
2013-01-08 05:53:00,46.0,34.0,-100.00,SE,132,5.0,7.0,62,0.00,,,0.00,0.000000,,2013-01-08 11:53:00,
2013-01-08 06:02:00,46.0,34.0,-100.00,SE,132,5.0,7.0,62,0.00,,,0.00,0.000000,,2013-01-08 12:02:00,
2013-01-08 06:33:00,45.0,34.0,-100.00,ESE,112,6.0,10.0,65,0.00,,,0.00,0.000000,,2013-01-08 12:33:00,
2013-01-08 06:43:00,45.0,34.0,-100.00,ESE,112,6.0,10.0,65,0.00,,,0.00,0.000000,,2013-01-08 12:43:00,
2013-01-08 06:53:00,45.0,34.0,-100.00,ESE,112,6.0,10.0,65,0.00,,,0.00,0.000000,,2013-01-08 12:53:00,
2013-01-08 07:03:00,45.0,34.0,-100.00,ESE,112,6.0,10.0,65,0.00,,,0.00,0.000000,,2013-01-08 13:03:00,
2013-01-08 07:33:00,45.0,34.0,-100.00,East,88,6.0,10.0,66,0.00,,,0.00,0.000000,,2013-01-08 13:33:00,
2013-01-08 07:43:00,45.0,34.0,-100.00,East,88,6.0,10.0,66,0.00,,,0.00,0.000000,,2013-01-08 13:43:00,
2013-01-08 07:53:00,45.0,34.0,-100.00,East,88,6.0,10.0,66,0.00,,,0.00,0.000000,,2013-01-08 13:53:00,
2013-01-08 08:02:00,45.0,34.0,-100.00,East,88,6.0,10.0,66,0.00,,,0.00,0.000000,,2013-01-08 14:02:00,
2013-01-08 08:33:00,45.0,35.0,-100.00,ESE,110,7.0,10.0,69,0.00,,,0.00,2.000000,,2013-01-08 14:33:00,
2013-01-08 08:43:00,45.0,35.0,-100.00,ESE,110,7.0,10.0,69,0.00,,,0.00,2.000000,,2013-01-08 14:43:00,
2013-01-08 08:53:00,45.0,35.0,-100.00,ESE,110,7.0,10.0,69,0.00,,,0.00,2.000000,,2013-01-08 14:53:00,
2013-01-08 09:03:00,45.0,35.0,-100.00,ESE,110,7.0,10.0,69,0.00,,,0.00,2.000000,,2013-01-08 15:03:00,
2013-01-08 09:33:00,45.0,37.0,-100.00,ESE,119,7.0,11.0,74,0.00,,,0.00,31.000000,,2013-01-08 15:33:00,
2013-01-08 09:43:00,45.0,37.0,-100.00,ESE,119,7.0,11.0,74,0.00,,,0.00,31.000000,,2013-01-08 15:43:00,
2013-01-08 09:53:00,45.0,37.0,-100.00,ESE,119,7.0,11.0,74,0.00,,,0.00,31.000000,,2013-01-08 15:53:00,
2013-01-08 10:03:00,45.0,37.0,-100.00,ESE,119,7.0,11.0,74,0.00,,,0.00,31.000000,,2013-01-08 16:03:00,
2013-01-08 10:34:00,44.0,41.0,-100.00,ESE,117,9.0,13.0,90,0.00,,,0.00,78.000000,,2013-01-08 16:34:00,
2013-01-08 10:43:00,44.0,41.0,-100.00,ESE,117,9.0,13.0,90,0.00,,,0.00,78.000000,,2013-01-08 16:43:00,
2013-01-08 10:53:00,44.0,41.0,-100.00,ESE,117,9.0,13.0,90,0.00,,,0.00,78.000000,,2013-01-08 16:53:00,
2013-01-08 11:03:00,44.0,41.0,-100.00,ESE,117,9.0,13.0,90,0.00,,,0.00,78.000000,,2013-01-08 17:03:00,
2013-01-08 11:34:00,44.0,43.0,-100.00,ENE,78,5.0,11.0,95,0.04,,,0.04,74.000000,,2013-01-08 17:34:00,
2013-01-08 11:43:00,44.0,43.0,-100.00,ENE,78,5.0,11.0,95,0.04,,,0.04,74.000000,,2013-01-08 17:43:00,
2013-01-08 11:54:00,44.0,43.0,-100.00,ENE,78,5.0,11.0,95,0.04,,,0.04,74.000000,,2013-01-08 17:54:00,
2013-01-08 12:03:00,44.0,43.0,-100.00,ENE,78,5.0,11.0,95,0.04,,,0.04,74.000000,,2013-01-08 18:03:00,
2013-01-08 12:33:00,45.0,44.0,-100.00,NE,36,5.0,8.0,96,0.07,,,0.11,84.000000,,2013-01-08 18:33:00,
2013-01-08 12:43:00,45.0,44.0,-100.00,NE,36,5.0,8.0,96,0.07,,,0.11,84.000000,,2013-01-08 18:43:00,
2013-01-08 12:53:00,45.0,44.0,-100.00,NE,36,5.0,8.0,96,0.07,,,0.11,84.000000,,2013-01-08 18:53:00,
2013-01-08 13:03:00,45.0,44.0,-100.00,NE,36,5.0,8.0,96,0.07,,,0.11,84.000000,,2013-01-08 19:03:00,
2013-01-08 13:33:00,46.0,45.0,-100.00,North,2,5.0,7.0,96,0.05,,,0.16,141.000000,,2013-01-08 19:33:00,
2013-01-08 13:43:00,46.0,45.0,-100.00,North,2,5.0,7.0,96,0.05,,,0.16,141.000000,,2013-01-08 19:43:00,
2013-01-08 13:53:00,46.0,45.0,-100.00,North,2,5.0,7.0,96,0.05,,,0.16,141.000000,,2013-01-08 19:53:00,
2013-01-08 14:03:00,46.0,45.0,-100.00,North,2,5.0,7.0,96,0.05,,,0.16,141.000000,,2013-01-08 20:03:00,
2013-01-08 14:33:00,48.0,47.0,-100.00,ENE,65,6.0,11.0,96,0.08,,,0.24,142.000000,,2013-01-08 20:33:00,
2013-01-08 14:43:00,48.0,47.0,-100.00,ENE,65,6.0,11.0,96,0.08,,,0.24,142.000000,,2013-01-08 20:43:00,
2013-01-08 14:54:00,48.0,47.0,-100.00,ENE,65,6.0,11.0,96,0.08,,,0.24,142.000000,,2013-01-08 20:54:00,
2013-01-08 15:03:00,48.0,47.0,-100.00,ENE,65,6.0,11.0,96,0.08,,,0.24,142.000000,,2013-01-08 21:03:00,
2013-01-08 15:33:00,49.0,48.0,-100.00,NE,47,4.0,7.0,96,0.00,,,0.24,101.000000,,2013-01-08 21:33:00,
2013-01-08 15:43:00,49.0,48.0,-100.00,NE,47,4.0,7.0,96,0.00,,,0.24,101.000000,,2013-01-08 21:43:00,
2013-01-08 15:53:00,49.0,48.0,-100.00,NE,47,4.0,7.0,96,0.00,,,0.24,101.000000,,2013-01-08 21:53:00,
2013-01-08 16:03:00,49.0,48.0,-100.00,NE,47,4.0,7.0,96,0.00,,,0.24,101.000000,,2013-01-08 22:03:00,
2013-01-08 16:33:00,49.0,48.0,-100.00,ENE,60,7.0,10.0,97,0.00,,,0.24,67.000000,,2013-01-08 22:33:00,
2013-01-08 16:43:00,49.0,48.0,-100.00,ENE,60,7.0,10.0,97,0.00,,,0.24,67.000000,,2013-01-08 22:43:00,
2013-01-08 16:53:00,49.0,48.0,-100.00,ENE,60,7.0,10.0,97,0.00,,,0.24,67.000000,,2013-01-08 22:53:00,
2013-01-08 17:02:00,49.0,48.0,-100.00,ENE,60,7.0,10.0,97,0.00,,,0.24,67.000000,,2013-01-08 23:02:00,
2013-01-08 17:33:00,49.0,48.0,-100.00,NE,56,8.0,14.0,97,0.01,,,0.25,49.000000,,2013-01-08 23:33:00,
2013-01-08 17:43:00,49.0,48.0,-100.00,NE,56,8.0,14.0,97,0.01,,,0.25,49.000000,,2013-01-08 23:43:00,
2013-01-08 17:53:00,49.0,48.0,-100.00,NE,56,8.0,14.0,97,0.01,,,0.25,49.000000,,2013-01-08 23:53:00,
2013-01-08 18:02:00,49.0,48.0,-100.00,NE,56,8.0,14.0,97,0.01,,,0.25,49.000000,,2013-01-09 00:02:00,
2013-01-08 18:33:00,49.0,48.0,-100.00,NE,46,5.0,12.0,97,0.00,,,0.25,4.000000,,2013-01-09 00:33:00,
2013-01-08 18:43:00,49.0,48.0,-100.00,NE,46,5.0,12.0,97,0.00,,,0.25,4.000000,,2013-01-09 00:43:00,
2013-01-08 18:53:00,49.0,48.0,-100.00,NE,46,5.0,12.0,97,0.00,,,0.25,4.000000,,2013-01-09 00:53:00,
2013-01-08 19:02:00,49.0,48.0,-100.00,NE,46,5.0,12.0,97,0.00,,,0.25,4.000000,,2013-01-09 01:02:00,
2013-01-08 19:33:00,49.0,48.0,-100.00,NNE,21,8.0,13.0,97,0.02,,,0.27,0.000000,,2013-01-09 01:33:00,
2013-01-08 19:42:00,49.0,48.0,-100.00,NNE,21,8.0,13.0,97,0.02,,,0.27,0.000000,,2013-01-09 01:42:00,
2013-01-08 19:52:00,49.0,48.0,-100.00,NNE,21,8.0,13.0,97,0.02,,,0.27,0.000000,,2013-01-09 01:52:00,
2013-01-08 20:02:00,49.0,48.0,-100.00,NNE,21,8.0,13.0,97,0.02,,,0.27,0.000000,,2013-01-09 02:02:00,
2013-01-08 20:33:00,48.0,47.0,-100.00,ENE,58,4.0,13.0,97,0.00,,,0.27,0.000000,,2013-01-09 02:33:00,
2013-01-08 20:43:00,48.0,47.0,-100.00,ENE,58,4.0,13.0,97,0.00,,,0.27,0.000000,,2013-01-09 02:43:00,
2013-01-08 20:53:00,48.0,47.0,-100.00,ENE,58,4.0,13.0,97,0.00,,,0.27,0.000000,,2013-01-09 02:53:00,
2013-01-08 21:03:00,48.0,47.0,-100.00,ENE,58,4.0,13.0,97,0.00,,,0.27,0.000000,,2013-01-09 03:03:00,
2013-01-08 21:33:00,48.0,47.0,-100.00,NE,34,4.0,7.0,97,0.00,,,0.27,0.000000,,2013-01-09 03:33:00,
2013-01-08 21:43:00,48.0,47.0,-100.00,NE,34,4.0,7.0,97,0.00,,,0.27,0.000000,,2013-01-09 03:43:00,
2013-01-08 21:53:00,48.0,47.0,-100.00,NE,34,4.0,7.0,97,0.00,,,0.27,0.000000,,2013-01-09 03:53:00,
2013-01-08 22:02:00,48.0,47.0,-100.00,NE,34,4.0,7.0,97,0.00,,,0.27,0.000000,,2013-01-09 04:02:00,
2013-01-08 22:33:00,48.0,47.0,-100.00,NNE,27,6.0,10.0,97,0.04,,,0.31,0.000000,,2013-01-09 04:33:00,
2013-01-08 22:43:00,48.0,47.0,-100.00,NNE,27,6.0,10.0,97,0.04,,,0.31,0.000000,,2013-01-09 04:43:00,
2013-01-08 22:52:00,48.0,47.0,-100.00,NNE,27,6.0,10.0,97,0.04,,,0.31,0.000000,,2013-01-09 04:52:00,
2013-01-08 23:03:00,48.0,47.0,-100.00,NNE,27,6.0,10.0,97,0.04,,,0.31,0.000000,,2013-01-09 05:03:00,
2013-01-08 23:33:00,48.0,47.0,-100.00,NNE,28,5.0,10.0,97,0.01,,,0.32,0.000000,,2013-01-09 05:33:00,
2013-01-08 23:43:00,48.0,47.0,-100.00,NNE,28,5.0,10.0,97,0.01,,,0.32,0.000000,,2013-01-09 05:43:00,
2013-01-08 23:53:00,48.0,47.0,-100.00,NNE,28,5.0,10.0,97,0.01,,,0.32,0.000000,,2013-01-09 05:53:00,